FLOCK 4S-11 (47462 NORAD) Tracking and Keplerian Element Data

This shows tracking and keplerian element data for the satellite.

Feedback or suggestion? Click here.




ElementValue
Catalog47462
NameFLOCK 4S-11
Epoch Orbit1198
Epoch Day101.9199722
Epoch Year2021
RAAN164.1896
Inclination97.4966
Eccentricity0.000833
Argument of Perigee359.8599
Mean Anonmoly0.2627
Mean Motion15.11622933
Decay Rate7.75E-06
L11 47462U 21006BB 21101.91997220 .00000775 00000-0 49326-4 0 9993
L22 47462 97.4966 164.1896 0008330 359.8599 0.2627 15.11622933 11982

Live tracking and technical data element details for FLOCK 4S-11 (NORAD 47462). FLOCK 4S-11 can be tracked NOW for your location showing map with azimuth and elevation plus other details from your city location.

Track the satellite on the map from your city or location and see movement details for azimuth, elevation, latitude, longitude, range, height, and movement on the map or in text.







IsCatalogInMostPopularTable: catalog: 47462, numindb: 16
Update: records affected: 1



GetName: 47462 FLOCK 4S-11

Hit Count: updated at: Tue, 13 Apr 2021 03:24:45 GMT